Location: downtown San Diego
(32.7310°N, 117.1990°W)
Time: 10:51:48
(UTC-07:00)

Cosmos 1151 Rocket - Pass Details

Date: 12 July 2018
Orbit: 593 x 615 km, 82.5° (Epoch: 22 September)

Event Time Altitude Azimuth Distance (km) Brightness Sun altitude
Rises 21:44:22 0° 352° (N) 2,838 7.3 -19.0°
Reaches altitude 10° 21:46:34 10° 351° (N) 1,934 6.3 -19.4°
Maximum altitude 21:50:50 80° 266° (W) 611 3.0 -20.0°
Enters shadow 21:52:19 40° 185° (S) 884 3.5 -20.2°
